GW4304 Weather Reports


Display with metric or nautical units.
time (UTC)temp
F
wind
direction
speed
MPH
gust
MPH
rain 1hr
in
rain 24hr
in
rain mn
in
humidity
%
barometer
mb
20260503044504 71 302 0.0 2.0 0.00 0.44 0.00 90 1015.9
20260503044004 71 316 0.0 2.0 0.00 0.44 0.00 90 1015.8
20260503043525 71 286 0.0 2.0 0.00 0.44 0.00 90 1016.1
20260503043025 71 224 0.0 2.0 0.00 0.44 0.00 90 1016.0
20260503042505 71 222 0.0 2.0 0.00 0.44 0.00 90 1016.1
20260503042004 71 278 0.0 2.0 0.00 0.44 0.00 90 1015.9
20260503041504 71 352 1.0 3.0 0.00 0.44 0.00 90 1015.9
20260503041004 71 14 1.0 4.0 0.00 0.44 0.00 90 1015.8
20260503040525 71 14 1.0 4.0 0.00 0.44 0.00 90 1015.8
20260503040004 71 360 1.0 3.0 0.00 0.44 0.00 90 1015.7
20260503035504 71 2 0.0 2.0 0.00 0.44 0.44 90 1015.8
20260503035004 71 12 0.0 2.0 0.00 0.44 0.44 90 1015.7
20260503034504 71 342 0.0 2.0 0.00 0.44 0.44 90 1015.8
20260503034004 71 311 0.0 2.0 0.00 0.44 0.44 91 1015.9
20260503033504 71 310 0.0 2.0 0.00 0.44 0.44 91 1015.6
20260503033004 72 318 0.0 2.0 0.00 0.44 0.44 91 1015.3
20260503032525 72 341 0.0 2.0 0.00 0.44 0.44 91 1015.2
20260503032004 72 348 0.0 2.0 0.00 0.44 0.44 91 1015.0
20260503031504 72 297 0.0 2.0 0.00 0.44 0.44 91 1015.0
20260503031004 72 316 0.0 1.0 0.00 0.44 0.44 91 1015.0
20260503030504 72 338 0.0 2.0 0.00 0.44 0.44 91 1014.8
20260503030004 72 346 0.0 2.0 0.00 0.44 0.44 91 1014.9
20260503025504 72 346 1.0 2.0 0.00 0.44 0.44 91 1014.9
20260503025025 72 344 0.0 2.0 0.01 0.44 0.44 91 1015.0
20260503024504 72 281 0.0 3.0 0.01 0.44 0.44 91 1014.5
20260503024025 72 230 0.0 3.0 0.01 0.44 0.44 91 1014.4
20260503023504 72 241 1.0 3.0 0.01 0.44 0.44 91 1014.9
20260503023004 72 281 1.0 2.0 0.01 0.44 0.44 91 1014.6
20260503022504 72 322 0.0 2.0 0.01 0.44 0.44 90 1014.6
20260503022004 72 350 1.0 3.0 0.02 0.44 0.44 90 1014.2
20260503021525 72 353 1.0 4.0 0.02 0.44 0.44 90 1014.3
20260503021004 72 359 1.0 4.0 0.02 0.44 0.44 90 1014.0
20260503020504 72 346 1.0 3.0 0.02 0.44 0.44 90 1014.2
20260503020004 72 360 1.0 3.0 0.02 0.44 0.44 90 1014.7
20260503015504 72 2 1.0 3.0 0.02 0.43 0.43 90 1014.6
20260503015004 72 333 1.0 3.0 0.02 0.43 0.43 90 1014.6
20260503014504 72 355 1.0 3.0 0.02 0.43 0.43 90 1014.8
20260503014004 72 14 1.0 3.0 0.02 0.43 0.43 90 1014.6
20260503013525 72 12 1.0 3.0 0.02 0.43 0.43 90 1014.8
20260503013004 72 357 1.0 3.0 0.02 0.43 0.43 90 1014.7
20260503012525 72 348 1.0 4.0 0.03 0.43 0.43 90 1014.4
20260503012004 72 10 1.0 4.0 0.02 0.42 0.42 90 1014.2
20260503011504 72 9 2.0 5.0 0.02 0.42 0.42 90 1013.9
20260503011004 72 16 3.0 6.0 0.03 0.42 0.42 90 1013.7
20260503010504 72 21 3.0 6.0 0.03 0.42 0.42 90 1013.0
20260503010026 72 21 3.0 6.0 0.03 0.42 0.42 90 1013.1
20260503005525 72 18 3.0 6.0 0.03 0.42 0.42 90 1013.3
20260503005004 72 14 2.0 5.0 0.03 0.41 0.41 90 1013.5
20260503004505 72 7 1.0 3.0 0.02 0.41 0.41 90 1013.6
20260503004004 73 17 2.0 4.0 0.03 0.41 0.41 90 1013.5
20260503003504 72 15 1.0 4.0 0.03 0.40 0.40 90 1013.6
20260503003004 72 6 1.0 4.0 0.03 0.40 0.40 90 1013.6
20260503002504 72 16 2.0 4.0 0.03 0.40 0.40 90 1013.5
20260503002004 73 17 1.0 4.0 0.03 0.40 0.40 90 1013.7
20260503001525 73 18 1.0 4.0 0.03 0.40 0.40 90 1013.1
20260503001004 73 14 1.0 3.0 0.02 0.39 0.39 90 1013.1
20260503000504 73 7 1.0 3.0 0.02 0.39 0.39 90 1012.8
20260503000004 72 10 1.0 3.0 0.02 0.39 0.39 90 1012.5
20260502235504 72 8 1.0 2.0 0.02 0.39 0.39 90 1013.2
20260502235004 72 4 0.0 2.0 0.01 0.38 0.38 90 1013.1
20260502234504 72 358 0.0 2.0 0.02 0.38 0.38 90 1013.2
20260502234004 72 6 0.0 1.0 0.01 0.37 0.37 90 1013.1
20260502233504 72 358 0.0 1.0 0.01 0.37 0.37 90 1013.5
20260502233004 72 339 0.0 2.0 0.01 0.37 0.37 90 1013.4
20260502232504 72 349 0.0 2.0 0.02 0.37 0.37 90 1013.5
20260502232004 72 350 0.0 2.0 0.02 0.37 0.37 90 1013.7
20260502231504 73 7 1.0 3.0 0.03 0.37 0.37 90 1013.6
20260502231004 73 21 2.0 4.0 0.03 0.37 0.37 90 1013.6
20260502230504 73 14 2.0 4.0 0.04 0.37 0.37 90 1013.6
20260502230004 73 353 1.0 2.0 0.04 0.37 0.37 90 1013.3
20260502225504 73 341 0.0 1.0 0.04 0.37 0.37 90 1013.2
20260502225004 73 342 0.0 1.0 0.04 0.37 0.37 90 1013.1
20260502224525 73 5 0.0 1.0 0.04 0.36 0.36 90 1013.0
20260502224004 73 195 0.0 2.0 0.04 0.36 0.36 90 1013.1
20260502223504 73 334 0.0 2.0 0.05 0.36 0.36 90 1013.2
20260502223004 74 351 0.0 2.0 0.05 0.36 0.36 90 1012.9
20260502222525 73 347 0.0 2.0 0.05 0.35 0.35 90 1013.3
20260502222004 73 360 0.0 2.0 0.14 0.35 0.35 90 1013.1
20260502221504 73 297 1.0 2.0 0.28 0.34 0.34 89 1013.1
20260502221004 73 265 0.0 2.0 0.34 0.34 0.34 89 1012.8
20260502220504 73 244 0.0 2.0 0.33 0.33 0.33 89 1013.4
20260502220004 73 241 0.0 2.0 0.33 0.33 0.33 89 1013.4
20260502215504 73 246 1.0 2.0 0.33 0.33 0.33 89 1013.2
20260502215004 74 204 1.0 3.0 0.33 0.33 0.33 89 1013.0
20260502214504 73 192 1.0 3.0 0.33 0.33 0.33 89 1013.5
20260502214005 73 200 1.0 4.0 0.33 0.33 0.33 88 1013.1
20260502213504 73 170 2.0 5.0 0.31 0.31 0.31 88 1013.0
20260502213004 73 141 3.0 7.0 0.31 0.31 0.31 87 1013.0
20260502212504 74 140 4.0 7.0 0.31 0.31 0.31 86 1013.1
20260502212004 74 135 4.0 11.0 0.21 0.21 0.22 85 1013.3
20260502211504 78 109 4.0 11.0 0.06 0.06 0.06 81 1013.0
20260502211004 81 83 3.0 10.0 0.00 0.00 0.00 78 1012.1
20260502210526 81 85 3.0 8.0 0.00 0.00 0.00 78 1012.2
20260502210005 82 80 4.0 8.0 0.00 0.00 0.00 77 1012.1
20260502205504 82 85 3.0 6.0 0.00 0.00 0.00 77 1012.1
20260502205004 82 85 3.0 7.0 0.00 0.00 0.00 76 1012.0
20260502204525 82 86 3.0 7.0 0.00 0.00 0.00 76 1012.2
20260502204004 82 98 3.0 5.0 0.00 0.00 0.00 75 1012.1
20260502203525 83 96 3.0 7.0 0.00 0.00 0.00 74 1012.2
20260502203004 83 91 3.0 7.0 0.00 0.00 0.00 74 1011.9
20260502202504 83 85 3.0 7.0 0.00 0.00 0.00 74 1011.9
20260502202004 83 81 3.0 6.0 0.00 0.00 0.00 74 1012.0
20260502201504 83 87 3.0 6.0 0.00 0.00 0.00 73 1011.9
20260502201025 83 96 3.0 6.0 0.00 0.00 0.00 74 1012.2
20260502200504 83 87 3.0 8.0 0.00 0.00 0.00 73 1012.2
20260502200004 84 82 3.0 8.0 0.00 0.00 0.00 72 1012.1
20260502195504 84 84 3.0 7.0 0.00 0.00 0.00 71 1012.3
20260502195004 85 88 3.0 7.0 0.00 0.00 0.00 71 1012.1
20260502194504 85 100 3.0 6.0 0.00 0.00 0.00 70 1012.2
20260502194004 85 96 4.0 8.0 0.00 0.00 0.00 70 1012.4
20260502193525 85 87 4.0 8.0 0.00 0.00 0.00 69 1012.3
20260502193004 85 85 4.0 8.0 0.00 0.00 0.00 69 1012.4
20260502192504 86 89 3.0 7.0 0.00 0.00 0.00 68 1012.4
20260502192004 87 83 4.0 8.0 0.00 0.00 0.00 67 1012.5
20260502191525 87 80 4.0 8.0 0.00 0.00 0.00 66 1012.4
20260502191004 87 91 4.0 8.0 0.00 0.00 0.00 66 1012.7
20260502190504 88 100 3.0 12.0 0.00 0.00 0.00 65 1012.8
20260502190004 87 98 4.0 12.0 0.00 0.00 0.00 64 1012.7
20260502185504 87 87 4.0 13.0 0.00 0.00 0.00 65 1012.5
20260502185004 87 78 4.0 13.0 0.00 0.00 0.00 65 1012.7
20260502184504 87 74 4.0 11.0 0.00 0.00 0.00 65 1012.7
20260502184004 87 73 4.0 11.0 0.00 0.00 0.00 65 1012.8
20260502183504 89 84 3.0 11.0 0.00 0.00 0.00 64 1013.0
20260502183004 88 106 3.0 7.0 0.00 0.00 0.00 65 1013.1
20260502182504 87 112 3.0 7.0 0.00 0.00 0.00 66 1013.1
20260502182004 88 101 4.0 10.0 0.00 0.00 0.00 66 1013.2
20260502181504 87 88 4.0 10.0 0.00 0.00 0.00 65 1013.3
20260502181004 86 80 4.0 12.0 0.00 0.00 0.00 69 1013.6
20260502180504 86 73 4.0 12.0 0.00 0.00 0.00 67 1013.3
20260502170504 86 74 4.0 11.0 0.00 0.00 0.00 70 1013.8
20260502164025 86 82 4.0 10.0 0.00 0.00 0.00 69 1013.8
20260502163504 86 76 4.0 11.0 0.00 0.00 0.00 70 1013.7
20260502163004 86 84 4.0 11.0 0.00 0.00 0.00 69 1013.9
20260502162504 86 93 4.0 9.0 0.00 0.00 0.00 70 1013.8
20260502162004 86 91 4.0 8.0 0.00 0.00 0.00 69 1013.7
20260502161504 86 84 4.0 13.0 0.00 0.00 0.00 70 1013.5
20260502161004 86 73 5.0 13.0 0.00 0.00 0.00 70 1013.6
20260502160503 86 75 5.0 13.0 0.00 0.00 0.00 70 1013.7
20260502152004 86 79 3.0 10.0 0.00 0.00 0.00 69 1013.4
20260502151503 86 64 4.0 17.0 0.00 0.00 0.00 70 1013.6
20260502151025 85 60 4.0 17.0 0.00 0.00 0.00 71 1013.4
20260502150524 85 69 4.0 11.0 0.00 0.00 0.00 71 1013.1
20260502130504 81 58 5.0 15.0 0.00 0.00 0.00 78 1012.3
20260502123504 79 66 4.0 9.0 0.00 0.00 0.00 83 1012.2
20260502123004 79 69 4.0 9.0 0.00 0.00 0.00 84 1012.2
20260502122504 78 68 4.0 9.0 0.00 0.00 0.00 85 1012.2
20260502122025 78 67 4.0 9.0 0.00 0.00 0.00 86 1012.0
20260502121504 77 64 4.0 9.0 0.00 0.00 0.00 87 1012.0
20260502121004 77 65 4.0 8.0 0.00 0.00 0.00 87 1012.1
20260502120504 75 70 4.0 6.0 0.00 0.00 0.00 87 1012.1
20260502115503 74 65 4.0 7.0 0.00 0.00 0.00 87 1011.9
20260502115003 74 69 3.0 6.0 0.00 0.00 0.00 87 1011.8
20260502114025 73 70 3.0 6.0 0.00 0.00 0.00 88 1012.0
20260502113503 73 64 4.0 6.0 0.00 0.00 0.00 88 1011.8
20260502113004 73 58 4.0 6.0 0.00 0.00 0.00 88 1011.9
20260502112504 72 60 4.0 6.0 0.00 0.00 0.00 88 1011.7
20260502112004 72 66 4.0 6.0 0.00 0.00 0.00 89 1011.7
20260502111504 72 66 4.0 6.0 0.00 0.00 0.00 89 1011.8
20260502111004 72 68 4.0 6.0 0.00 0.00 0.00 89 1011.8
20260502110504 71 68 4.0 6.0 0.00 0.00 0.00 89 1011.7
20260502110025 70 75 3.0 6.0 0.00 0.00 0.00 89 1011.8
20260502105525 70 88 2.0 4.0 0.00 0.00 0.00 89 1011.8
20260502105004 70 86 2.0 4.0 0.00 0.00 0.00 89 1012.0
20260502104504 70 77 3.0 5.0 0.00 0.00 0.00 89 1011.8
20260502104003 70 74 3.0 5.0 0.00 0.00 0.00 89 1011.7
20260502103503 70 83 3.0 4.0 0.00 0.00 0.00 88 1011.9
20260502103003 70 87 2.0 4.0 0.00 0.00 0.00 88 1011.8
20260502102504 70 88 3.0 5.0 0.00 0.00 0.00 88 1011.8
20260502102025 70 83 3.0 5.0 0.00 0.00 0.00 88 1012.0
20260502101504 70 79 3.0 5.0 0.00 0.00 0.00 88 1012.0
20260502101004 70 81 3.0 5.0 0.00 0.00 0.00 88 1011.8
20260502100504 70 76 3.0 4.0 0.00 0.00 0.00 88 1012.0
20260502091504 70 86 3.0 4.0 0.00 0.00 0.00 88 1012.1
20260502091003 70 82 3.0 4.0 0.00 0.00 0.00 88 1012.1
20260502090504 69 78 3.0 4.0 0.00 0.00 0.00 88 1012.3
20260502071504 70 95 2.0 3.0 0.00 0.00 0.00 87 1012.5
20260502071003 70 96 2.0 3.0 0.00 0.00 0.00 87 1012.5
20260502070504 71 89 2.0 3.0 0.00 0.00 0.00 87 1012.4
20260502070003 70 85 2.0 3.0 0.00 0.00 0.00 87 1012.3
20260502065503 70 84 2.0 3.0 0.00 0.00 0.00 87 1012.5
20260502065025 70 83 2.0 3.0 0.00 0.00 0.00 87 1012.5
20260502064504 71 83 2.0 3.0 0.00 0.00 0.00 87 1012.4
20260502064003 71 85 2.0 3.0 0.00 0.00 0.00 87 1012.6
20260502063503 71 88 2.0 3.0 0.00 0.00 0.00 87 1012.4
20260502063004 71 90 2.0 3.0 0.00 0.00 0.00 87 1012.6
20260502062503 71 87 2.0 3.0 0.00 0.00 0.00 87 1012.4
20260502062004 71 85 2.0 3.0 0.00 0.00 0.00 86 1012.6
20260502061503 71 87 2.0 3.0 0.00 0.00 0.00 86 1012.6
20260502061003 71 88 2.0 3.0 0.00 0.00 0.00 86 1012.8
20260502060504 71 88 2.0 3.0 0.00 0.00 0.00 86 1012.8
20260502060004 71 87 2.0 3.0 0.00 0.00 0.00 86 1012.8
20260502055503 71 85 2.0 3.0 0.00 0.00 0.00 86 1012.9
20260502055003 71 88 2.0 3.0 0.00 0.00 0.00 86 1012.9
20260502054503 71 91 2.0 3.0 0.00 0.00 0.00 86 1013.0
20260502054024 71 88 2.0 3.0 0.00 0.00 0.00 86 1012.9
20260502053503 71 83 2.0 3.0 0.00 0.00 0.00 86 1013.0
20260502053004 72 80 2.0 3.0 0.00 0.00 0.00 86 1013.0
20260502052503 71 76 3.0 3.0 0.00 0.00 0.00 86 1013.2
20260502052024 71 74 3.0 4.0 0.00 0.00 0.00 86 1013.3
20260502051503 72 77 3.0 4.0 0.00 0.00 0.00 86 1013.3
20260502051003 71 80 3.0 3.0 0.00 0.00 0.00 86 1013.2
20260502050525 71 81 3.0 3.0 0.00 0.00 0.00 86 1013.2
20260502050004 71 80 2.0 3.0 0.00 0.00 0.00 86 1013.4
20260502045525 71 81 2.0 3.0 0.00 0.00 0.00 86 1013.4
20260502045025 71 86 2.0 3.0 0.00 0.00 0.00 86 1013.4